Time,TemperatureF,DewpointF,PressureIn,WindDirection,WindDirectionDegrees,WindSpeedMPH,WindSpeedGustMPH,Humidity,HourlyPrecipIn,Conditions,Clouds,dailyrainin,SoftwareType,DateUTC
2013-07-25 00:12:00,56.0,-99.9,-100.00,North,-999,-999.0,-999.0,-999,0.00,,,0.02,,2013-07-25 06:12:00,
2013-07-25 00:22:00,56.0,-99.9,-100.00,North,-999,-999.0,-999.0,-999,0.00,,,0.02,,2013-07-25 06:22:00,
2013-07-25 00:32:00,56.0,-99.9,-100.00,North,-999,-999.0,-999.0,-999,0.00,,,0.02,,2013-07-25 06:32:00,
2013-07-25 00:43:00,56.0,-99.9,-100.00,North,-999,-999.0,-999.0,-999,0.00,,,0.02,,2013-07-25 06:43:00,
2013-07-25 01:12:00,55.0,-99.9,-100.00,North,-999,-999.0,-999.0,-999,0.00,,,0.02,,2013-07-25 07:12:00,
2013-07-25 01:22:00,55.0,-99.9,-100.00,North,-999,-999.0,-999.0,-999,0.00,,,0.02,,2013-07-25 07:22:00,
2013-07-25 01:33:00,55.0,-99.9,-100.00,North,-999,-999.0,-999.0,-999,0.00,,,0.02,,2013-07-25 07:33:00,
2013-07-25 01:43:00,55.0,-99.9,-100.00,North,-999,-999.0,-999.0,-999,0.00,,,0.02,,2013-07-25 07:43:00,
2013-07-25 02:12:00,55.0,-99.9,-100.00,North,-999,-999.0,-999.0,-999,0.00,,,0.02,,2013-07-25 08:12:00,
2013-07-25 02:22:00,55.0,-99.9,-100.00,North,-999,-999.0,-999.0,-999,0.00,,,0.02,,2013-07-25 08:22:00,
2013-07-25 02:32:00,55.0,-99.9,-100.00,North,-999,-999.0,-999.0,-999,0.00,,,0.02,,2013-07-25 08:32:00,
2013-07-25 02:44:00,55.0,-99.9,-100.00,North,-999,-999.0,-999.0,-999,0.00,,,0.02,,2013-07-25 08:44:00,
2013-07-25 03:12:00,54.0,-99.9,-100.00,North,-999,-999.0,-999.0,-999,0.02,,,0.04,,2013-07-25 09:12:00,
2013-07-25 03:22:00,54.0,-99.9,-100.00,North,-999,-999.0,-999.0,-999,0.02,,,0.04,,2013-07-25 09:22:00,
2013-07-25 03:33:00,54.0,-99.9,-100.00,North,-999,-999.0,-999.0,-999,0.02,,,0.04,,2013-07-25 09:33:00,
2013-07-25 03:43:00,54.0,-99.9,-100.00,North,-999,-999.0,-999.0,-999,0.02,,,0.04,,2013-07-25 09:43:00,
2013-07-25 04:12:00,53.0,-99.9,-100.00,North,-999,-999.0,-999.0,-999,0.00,,,0.04,,2013-07-25 10:12:00,
2013-07-25 04:22:00,53.0,-99.9,-100.00,North,-999,-999.0,-999.0,-999,0.00,,,0.04,,2013-07-25 10:22:00,
2013-07-25 04:32:00,53.0,-99.9,-100.00,North,-999,-999.0,-999.0,-999,0.00,,,0.04,,2013-07-25 10:32:00,
2013-07-25 04:43:00,53.0,-99.9,-100.00,North,-999,-999.0,-999.0,-999,0.00,,,0.04,,2013-07-25 10:43:00,
2013-07-25 05:12:00,50.0,-99.9,-100.00,North,-999,-999.0,-999.0,-999,0.00,,,0.04,,2013-07-25 11:12:00,
2013-07-25 05:22:00,50.0,-99.9,-100.00,North,-999,-999.0,-999.0,-999,0.00,,,0.04,,2013-07-25 11:22:00,
2013-07-25 05:32:00,50.0,-99.9,-100.00,North,-999,-999.0,-999.0,-999,0.00,,,0.04,,2013-07-25 11:32:00,
2013-07-25 05:43:00,50.0,-99.9,-100.00,North,-999,-999.0,-999.0,-999,0.00,,,0.04,,2013-07-25 11:43:00,
2013-07-25 08:12:00,58.0,-99.9,-100.00,North,-999,-999.0,-999.0,-999,-99.99,,,-99.99,,2013-07-25 14:12:00,
2013-07-25 08:22:00,58.0,-99.9,-100.00,North,-999,-999.0,-999.0,-999,-99.99,,,-99.99,,2013-07-25 14:22:00,
2013-07-25 08:33:00,58.0,-99.9,-100.00,North,-999,-999.0,-999.0,-999,-99.99,,,-99.99,,2013-07-25 14:33:00,
2013-07-25 08:43:00,58.0,-99.9,-100.00,North,-999,-999.0,-999.0,-999,-99.99,,,-99.99,,2013-07-25 14:43:00,
2013-07-25 09:33:00,64.0,-99.9,-100.00,North,-999,-999.0,-999.0,-999,0.00,,,-99.99,,2013-07-25 15:33:00,
2013-07-25 09:44:00,64.0,-99.9,-100.00,North,-999,-999.0,-999.0,-999,0.00,,,-99.99,,2013-07-25 15:44:00,
2013-07-25 09:45:00,64.0,-99.9,-100.00,North,-999,-999.0,-999.0,-999,0.00,,,0.04,,2013-07-25 15:45:00,
2013-07-25 10:12:00,64.0,-99.9,-100.00,North,-999,-999.0,-999.0,-999,0.00,,,0.04,,2013-07-25 16:12:00,
2013-07-25 10:23:00,64.0,-99.9,-100.00,North,-999,-999.0,-999.0,-999,0.00,,,0.04,,2013-07-25 16:23:00,
2013-07-25 10:33:00,64.0,-99.9,-100.00,North,-999,-999.0,-999.0,-999,0.00,,,0.04,,2013-07-25 16:33:00,
2013-07-25 11:12:00,65.0,-99.9,-100.00,North,-999,-999.0,-999.0,-999,0.00,,,0.04,,2013-07-25 17:12:00,
2013-07-25 11:22:00,65.0,-99.9,-100.00,North,-999,-999.0,-999.0,-999,0.00,,,0.04,,2013-07-25 17:22:00,
2013-07-25 11:32:00,65.0,-99.9,-100.00,North,-999,-999.0,-999.0,-999,0.00,,,0.04,,2013-07-25 17:32:00,
2013-07-25 11:43:00,65.0,-99.9,-100.00,North,-999,-999.0,-999.0,-999,0.00,,,0.04,,2013-07-25 17:43:00,
2013-07-25 12:12:00,64.0,-99.9,-100.00,North,-999,-999.0,-999.0,-999,0.00,,,0.04,,2013-07-25 18:12:00,
2013-07-25 12:22:00,64.0,-99.9,-100.00,North,-999,-999.0,-999.0,-999,0.00,,,0.04,,2013-07-25 18:22:00,
2013-07-25 12:34:00,64.0,-99.9,-100.00,North,-999,-999.0,-999.0,-999,0.00,,,0.04,,2013-07-25 18:34:00,
2013-07-25 12:43:00,64.0,-99.9,-100.00,North,-999,-999.0,-999.0,-999,0.00,,,0.04,,2013-07-25 18:43:00,
2013-07-25 13:13:00,68.0,-99.9,-100.00,North,-999,-999.0,-999.0,-999,0.00,,,0.04,,2013-07-25 19:13:00,
2013-07-25 13:23:00,68.0,-99.9,-100.00,North,-999,-999.0,-999.0,-999,0.00,,,0.04,,2013-07-25 19:23:00,
2013-07-25 13:34:00,68.0,-99.9,-100.00,North,-999,-999.0,-999.0,-999,0.00,,,0.04,,2013-07-25 19:34:00,
2013-07-25 13:43:00,68.0,-99.9,-100.00,North,-999,-999.0,-999.0,-999,0.00,,,0.04,,2013-07-25 19:43:00,
2013-07-25 14:12:00,65.0,-99.9,-100.00,North,-999,-999.0,-999.0,-999,0.00,,,-99.99,,2013-07-25 20:12:00,
2013-07-25 14:22:00,65.0,-99.9,-100.00,North,-999,-999.0,-999.0,-999,0.00,,,-99.99,,2013-07-25 20:22:00,
2013-07-25 14:32:00,65.0,-99.9,-100.00,North,-999,-999.0,-999.0,-999,0.00,,,-99.99,,2013-07-25 20:32:00,
2013-07-25 14:43:00,65.0,-99.9,-100.00,North,-999,-999.0,-999.0,-999,0.00,,,-99.99,,2013-07-25 20:43:00,
2013-07-25 15:13:00,69.0,-99.9,-100.00,North,-999,-999.0,-999.0,-999,0.00,,,0.04,,2013-07-25 21:13:00,
2013-07-25 15:22:00,69.0,-99.9,-100.00,North,-999,-999.0,-999.0,-999,0.00,,,0.04,,2013-07-25 21:22:00,
2013-07-25 15:33:00,69.0,-99.9,-100.00,North,-999,-999.0,-999.0,-999,0.00,,,0.04,,2013-07-25 21:33:00,
2013-07-25 15:44:00,69.0,-99.9,-100.00,North,-999,-999.0,-999.0,-999,0.00,,,0.04,,2013-07-25 21:44:00,
2013-07-25 16:12:00,71.0,-99.9,-100.00,North,-999,-999.0,-999.0,-999,0.00,,,-99.99,,2013-07-25 22:12:00,
2013-07-25 16:22:00,71.0,-99.9,-100.00,North,-999,-999.0,-999.0,-999,0.00,,,-99.99,,2013-07-25 22:22:00,
2013-07-25 16:33:00,71.0,-99.9,-100.00,North,-999,-999.0,-999.0,-999,0.00,,,-99.99,,2013-07-25 22:33:00,
2013-07-25 16:43:00,71.0,-99.9,-100.00,North,-999,-999.0,-999.0,-999,0.00,,,-99.99,,2013-07-25 22:43:00,
2013-07-25 18:13:00,61.0,-99.9,-100.00,North,-999,-999.0,-999.0,-999,-99.99,,,0.06,,2013-07-26 00:13:00,
2013-07-25 18:22:00,61.0,-99.9,-100.00,North,-999,-999.0,-999.0,-999,-99.99,,,0.06,,2013-07-26 00:22:00,
2013-07-25 18:33:00,61.0,-99.9,-100.00,North,-999,-999.0,-999.0,-999,-99.99,,,0.06,,2013-07-26 00:33:00,
2013-07-25 18:43:00,61.0,-99.9,-100.00,North,-999,-999.0,-999.0,-999,-99.99,,,0.06,,2013-07-26 00:43:00,
2013-07-25 19:12:00,60.0,-99.9,-100.00,North,-999,-999.0,-999.0,-999,0.00,,,0.06,,2013-07-26 01:12:00,
2013-07-25 19:22:00,60.0,-99.9,-100.00,North,-999,-999.0,-999.0,-999,0.00,,,0.06,,2013-07-26 01:22:00,
2013-07-25 19:33:00,60.0,-99.9,-100.00,North,-999,-999.0,-999.0,-999,0.00,,,0.06,,2013-07-26 01:33:00,
2013-07-25 19:43:00,60.0,-99.9,-100.00,North,-999,-999.0,-999.0,-999,0.00,,,0.06,,2013-07-26 01:43:00,
2013-07-25 20:12:00,53.0,-99.9,-100.00,North,-999,-999.0,-999.0,-999,0.01,,,-99.99,,2013-07-26 02:12:00,
2013-07-25 20:22:00,53.0,-99.9,-100.00,North,-999,-999.0,-999.0,-999,0.01,,,-99.99,,2013-07-26 02:22:00,
2013-07-25 20:32:00,53.0,-99.9,-100.00,North,-999,-999.0,-999.0,-999,0.01,,,-99.99,,2013-07-26 02:32:00,
2013-07-25 20:43:00,53.0,-99.9,-100.00,North,-999,-999.0,-999.0,-999,0.01,,,-99.99,,2013-07-26 02:43:00,
2013-07-25 21:12:00,51.0,-99.9,-100.00,North,-999,-999.0,-999.0,-999,0.11,,,0.16,,2013-07-26 03:12:00,
2013-07-25 21:22:00,51.0,-99.9,-100.00,North,-999,-999.0,-999.0,-999,0.11,,,0.16,,2013-07-26 03:22:00,
2013-07-25 21:33:00,51.0,-99.9,-100.00,North,-999,-999.0,-999.0,-999,0.11,,,0.16,,2013-07-26 03:33:00,
2013-07-25 21:44:00,51.0,-99.9,-100.00,North,-999,-999.0,-999.0,-999,0.11,,,0.16,,2013-07-26 03:44:00,
2013-07-25 22:12:00,51.0,-99.9,-100.00,North,-999,-999.0,-999.0,-999,0.00,,,0.16,,2013-07-26 04:12:00,
2013-07-25 22:23:00,51.0,-99.9,-100.00,North,-999,-999.0,-999.0,-999,0.00,,,0.16,,2013-07-26 04:23:00,
2013-07-25 22:32:00,51.0,-99.9,-100.00,North,-999,-999.0,-999.0,-999,0.00,,,0.16,,2013-07-26 04:32:00,
2013-07-25 22:43:00,51.0,-99.9,-100.00,North,-999,-999.0,-999.0,-999,0.00,,,0.16,,2013-07-26 04:43:00,